Year,Month,Day,Hour,Minute,Value (Times are PST for temperature in C)
2015,06,11,00,00,18.40
2015,06,11,00,01,18.40
2015,06,11,00,02,18.40
2015,06,11,00,03,18.40
2015,06,11,00,04,18.40
2015,06,11,00,05,18.40
2015,06,11,00,06,18.30
2015,06,11,00,07,18.30
2015,06,11,00,08,18.30
2015,06,11,00,09,18.30
2015,06,11,00,10,18.30
2015,06,11,00,11,18.30
2015,06,11,00,12,18.30
2015,06,11,00,13,18.30
2015,06,11,00,14,18.20
2015,06,11,00,15,18.20
2015,06,11,00,16,18.20
2015,06,11,00,17,18.20
2015,06,11,00,18,18.20
2015,06,11,00,19,18.20
2015,06,11,00,20,18.10
2015,06,11,00,21,18.10
2015,06,11,00,22,18.10
2015,06,11,00,23,18.10
2015,06,11,00,24,18.10
2015,06,11,00,25,18.10
2015,06,11,00,26,18.00
2015,06,11,00,27,18.00
2015,06,11,00,28,18.00
2015,06,11,00,29,17.90
2015,06,11,00,30,17.90
2015,06,11,00,31,17.90
2015,06,11,00,32,17.90
2015,06,11,00,33,17.90
2015,06,11,00,34,17.80
2015,06,11,00,35,17.80
2015,06,11,00,36,17.80
2015,06,11,00,37,17.80
2015,06,11,00,38,17.80
2015,06,11,00,39,17.80
2015,06,11,00,40,17.70
2015,06,11,00,41,17.70
2015,06,11,00,42,17.70
2015,06,11,00,43,17.70
2015,06,11,00,44,17.70
2015,06,11,00,45,17.70
2015,06,11,00,46,17.70
2015,06,11,00,47,17.70
2015,06,11,00,48,17.60
2015,06,11,00,49,17.70
2015,06,11,00,50,17.60
2015,06,11,00,51,17.60
2015,06,11,00,52,17.60
2015,06,11,00,53,17.60
2015,06,11,00,54,17.60
2015,06,11,00,55,17.60
2015,06,11,00,56,17.60
2015,06,11,00,57,17.60
2015,06,11,00,58,17.60
2015,06,11,00,59,17.60
2015,06,11,01,00,17.60
2015,06,11,01,01,17.50
2015,06,11,01,02,17.50
2015,06,11,01,03,17.50
2015,06,11,01,04,17.50
2015,06,11,01,05,17.50
2015,06,11,01,06,17.40
2015,06,11,01,07,17.40
2015,06,11,01,08,17.40
2015,06,11,01,09,17.40
2015,06,11,01,10,17.40
2015,06,11,01,11,17.30
2015,06,11,01,12,17.30
2015,06,11,01,13,17.30
2015,06,11,01,14,17.30
2015,06,11,01,15,17.20
2015,06,11,01,16,17.20
2015,06,11,01,17,17.20
2015,06,11,01,18,17.20
2015,06,11,01,19,17.20
2015,06,11,01,20,17.20
2015,06,11,01,21,17.20
2015,06,11,01,22,17.20
2015,06,11,01,23,17.20
2015,06,11,01,24,17.20
2015,06,11,01,25,17.20
2015,06,11,01,26,17.20
2015,06,11,01,27,17.20
2015,06,11,01,28,17.20
2015,06,11,01,29,17.20
2015,06,11,01,30,17.30
2015,06,11,01,31,17.30
2015,06,11,01,32,17.40
2015,06,11,01,33,17.40
2015,06,11,01,34,17.50
2015,06,11,01,35,17.60
2015,06,11,01,36,17.60
2015,06,11,01,37,17.70
2015,06,11,01,38,17.70
2015,06,11,01,39,17.70
2015,06,11,01,40,17.70
2015,06,11,01,41,17.80
2015,06,11,01,42,17.80
2015,06,11,01,43,17.80
2015,06,11,01,44,17.80
2015,06,11,01,45,17.80
2015,06,11,01,46,17.70
2015,06,11,01,47,17.70
2015,06,11,01,48,17.70
2015,06,11,01,49,17.60
2015,06,11,01,50,17.60
2015,06,11,01,51,17.60
2015,06,11,01,52,17.50
2015,06,11,01,53,17.40
2015,06,11,01,54,17.30
2015,06,11,01,55,17.20
2015,06,11,01,56,17.10
2015,06,11,01,57,17.00
2015,06,11,01,58,17.00
2015,06,11,01,59,16.90
2015,06,11,02,00,16.90
2015,06,11,02,01,16.90
2015,06,11,02,02,16.80
2015,06,11,02,03,16.80
2015,06,11,02,04,16.70
2015,06,11,02,05,16.70
2015,06,11,02,06,16.70
2015,06,11,02,07,16.60
2015,06,11,02,08,16.60
2015,06,11,02,09,16.60
2015,06,11,02,10,16.50
2015,06,11,02,11,16.50
2015,06,11,02,12,16.40
2015,06,11,02,13,16.40
2015,06,11,02,14,16.40
2015,06,11,02,15,16.40
2015,06,11,02,16,16.40
2015,06,11,02,17,16.40
2015,06,11,02,18,16.50
2015,06,11,02,19,16.50
2015,06,11,02,20,16.50
2015,06,11,02,21,16.60
2015,06,11,02,22,16.50
2015,06,11,02,23,16.50
2015,06,11,02,24,16.50
2015,06,11,02,25,16.40
2015,06,11,02,26,16.40
2015,06,11,02,27,16.40
2015,06,11,02,28,16.40
2015,06,11,02,29,16.30
2015,06,11,02,30,16.30
2015,06,11,02,31,16.30
2015,06,11,02,32,16.40
2015,06,11,02,33,16.40
2015,06,11,02,34,16.40
2015,06,11,02,35,16.40
2015,06,11,02,36,16.40
2015,06,11,02,37,16.50
2015,06,11,02,38,16.50
2015,06,11,02,39,16.50
2015,06,11,02,40,16.50
2015,06,11,02,41,16.50
2015,06,11,02,42,16.50
2015,06,11,02,43,16.40
2015,06,11,02,44,16.40
2015,06,11,02,45,16.40
2015,06,11,02,46,16.40
2015,06,11,02,47,16.40
2015,06,11,02,48,16.40
2015,06,11,02,49,16.30
2015,06,11,02,50,16.30
2015,06,11,02,51,16.30
2015,06,11,02,52,16.30
2015,06,11,02,53,16.30
2015,06,11,02,54,16.30
2015,06,11,02,55,16.30
2015,06,11,02,56,16.20
2015,06,11,02,57,16.20
2015,06,11,02,58,16.20
2015,06,11,02,59,16.20
2015,06,11,03,00,16.30
2015,06,11,03,01,16.30
2015,06,11,03,02,16.40
2015,06,11,03,03,16.50
2015,06,11,03,04,16.60
2015,06,11,03,05,16.70
2015,06,11,03,06,16.80
2015,06,11,03,07,16.80
2015,06,11,03,08,16.90
2015,06,11,03,09,17.00
2015,06,11,03,10,17.10
2015,06,11,03,11,17.20
2015,06,11,03,12,17.30
2015,06,11,03,13,17.30
2015,06,11,03,14,17.40
2015,06,11,03,15,17.40
2015,06,11,03,16,17.40
2015,06,11,03,17,17.40
2015,06,11,03,18,17.40
2015,06,11,03,19,17.40
2015,06,11,03,20,17.40
2015,06,11,03,21,17.40
2015,06,11,03,22,17.40
2015,06,11,03,23,17.40
2015,06,11,03,24,17.40
2015,06,11,03,25,17.50
2015,06,11,03,26,17.60
2015,06,11,03,27,17.70
2015,06,11,03,28,17.70
2015,06,11,03,29,17.70
2015,06,11,03,30,17.80
2015,06,11,03,31,17.80
2015,06,11,03,32,17.80
2015,06,11,03,33,17.80
2015,06,11,03,34,17.80
2015,06,11,03,35,17.80
2015,06,11,03,36,17.90
2015,06,11,03,37,17.90
2015,06,11,03,38,17.90
2015,06,11,03,39,17.90
2015,06,11,03,40,17.90
2015,06,11,03,41,17.90
2015,06,11,03,42,17.90
2015,06,11,03,43,17.90
2015,06,11,03,44,17.90
2015,06,11,03,45,17.90
2015,06,11,03,46,17.90
2015,06,11,03,47,17.90
2015,06,11,03,48,17.90
2015,06,11,03,49,17.90
2015,06,11,03,50,17.80
2015,06,11,03,51,17.80
2015,06,11,03,52,17.70
2015,06,11,03,53,17.60
2015,06,11,03,54,17.50
2015,06,11,03,55,17.40
2015,06,11,03,56,17.30
2015,06,11,03,57,17.30
2015,06,11,03,58,17.20
2015,06,11,03,59,17.20
2015,06,11,04,00,17.20
2015,06,11,04,01,17.20
2015,06,11,04,02,17.20
2015,06,11,04,03,17.30
2015,06,11,04,04,17.30
2015,06,11,04,05,17.30
2015,06,11,04,06,17.30
2015,06,11,04,07,17.30
2015,06,11,04,08,17.40
2015,06,11,04,09,17.40
2015,06,11,04,10,17.40
2015,06,11,04,11,17.40
2015,06,11,04,12,17.40
2015,06,11,04,13,17.40
2015,06,11,04,14,17.40
2015,06,11,04,15,17.40
2015,06,11,04,16,17.40
2015,06,11,04,17,17.40
2015,06,11,04,18,17.40
2015,06,11,04,19,17.30
2015,06,11,04,20,17.30
2015,06,11,04,21,17.30
2015,06,11,04,22,17.30
2015,06,11,04,23,17.30
2015,06,11,04,24,17.30
2015,06,11,04,25,17.20
2015,06,11,04,26,17.20
2015,06,11,04,27,17.20
2015,06,11,04,28,17.20
2015,06,11,04,29,17.20
2015,06,11,04,30,17.20
2015,06,11,04,31,17.20
2015,06,11,04,32,17.20
2015,06,11,04,33,17.20
2015,06,11,04,34,17.20
2015,06,11,04,35,17.20
2015,06,11,04,36,17.10
2015,06,11,04,37,17.10
2015,06,11,04,38,17.10
2015,06,11,04,39,17.10
2015,06,11,04,40,17.10
2015,06,11,04,41,17.10
2015,06,11,04,42,17.00
2015,06,11,04,43,17.00
2015,06,11,04,44,17.00
2015,06,11,04,45,17.00
2015,06,11,04,46,17.00
2015,06,11,04,47,17.00
2015,06,11,04,48,17.00
2015,06,11,04,49,17.00
2015,06,11,04,50,17.00
2015,06,11,04,51,17.00
2015,06,11,04,52,17.00
2015,06,11,04,53,17.00
2015,06,11,04,54,17.00
2015,06,11,04,55,17.00
2015,06,11,04,56,16.90
2015,06,11,04,57,16.90
2015,06,11,04,58,16.90
2015,06,11,04,59,16.80
2015,06,11,05,00,16.80
2015,06,11,05,01,16.80
2015,06,11,05,02,16.70
2015,06,11,05,03,16.60
2015,06,11,05,04,16.50
2015,06,11,05,05,16.30
2015,06,11,05,06,16.20
2015,06,11,05,07,16.20
2015,06,11,05,08,16.20
2015,06,11,05,09,16.10
2015,06,11,05,10,16.10
2015,06,11,05,11,16.10
2015,06,11,05,12,16.10
2015,06,11,05,13,16.10
2015,06,11,05,14,16.20
2015,06,11,05,15,16.20
2015,06,11,05,16,16.20
2015,06,11,05,17,16.20
2015,06,11,05,18,16.20
2015,06,11,05,19,16.20
2015,06,11,05,20,16.20
2015,06,11,05,21,16.20
2015,06,11,05,22,16.10
2015,06,11,05,23,16.10
2015,06,11,05,24,16.00
2015,06,11,05,25,15.90
2015,06,11,05,26,15.90
2015,06,11,05,27,15.80
2015,06,11,05,28,15.80
2015,06,11,05,29,15.70
2015,06,11,05,30,15.70
2015,06,11,05,31,15.70
2015,06,11,05,32,15.80
2015,06,11,05,33,15.80
2015,06,11,05,34,15.80
2015,06,11,05,35,15.90
2015,06,11,05,36,16.00
2015,06,11,05,37,16.00
2015,06,11,05,38,16.10
2015,06,11,05,39,16.20
2015,06,11,05,40,16.20
2015,06,11,05,41,16.30
2015,06,11,05,42,16.30
2015,06,11,05,43,16.40
2015,06,11,05,44,16.40
2015,06,11,05,45,16.40
2015,06,11,05,46,16.50
2015,06,11,05,47,16.50
2015,06,11,05,48,16.50
2015,06,11,05,49,16.60
2015,06,11,05,50,16.60
2015,06,11,05,51,16.60
2015,06,11,05,52,16.60
2015,06,11,05,53,16.70
2015,06,11,05,54,16.70
2015,06,11,05,55,16.70
2015,06,11,05,56,16.70
2015,06,11,05,57,16.70
2015,06,11,05,58,16.70
2015,06,11,05,59,16.70
2015,06,11,06,00,16.80
2015,06,11,06,01,16.70
2015,06,11,06,02,16.70
2015,06,11,06,03,16.70
2015,06,11,06,04,16.80
2015,06,11,06,05,16.80
2015,06,11,06,06,16.70
2015,06,11,06,07,16.70
2015,06,11,06,08,16.70
2015,06,11,06,09,16.70
2015,06,11,06,10,16.70
2015,06,11,06,11,16.70
2015,06,11,06,12,16.70
2015,06,11,06,13,16.70
2015,06,11,06,14,16.80
2015,06,11,06,15,16.80
2015,06,11,06,16,16.80
2015,06,11,06,17,16.80
2015,06,11,06,18,16.80
2015,06,11,06,19,16.90
2015,06,11,06,20,16.90
2015,06,11,06,21,16.90
2015,06,11,06,22,16.90
2015,06,11,06,23,16.90
2015,06,11,06,24,16.90
2015,06,11,06,25,16.90
2015,06,11,06,26,16.90
2015,06,11,06,27,16.90
2015,06,11,06,28,16.90
2015,06,11,06,29,16.90
2015,06,11,06,30,16.90
2015,06,11,06,31,16.90
2015,06,11,06,32,16.90
2015,06,11,06,33,16.90
2015,06,11,06,34,16.90
2015,06,11,06,35,16.90
2015,06,11,06,36,16.90
2015,06,11,06,37,16.90
2015,06,11,06,38,16.90
2015,06,11,06,39,16.90
2015,06,11,06,40,17.00
2015,06,11,06,41,17.00
2015,06,11,06,42,17.00
2015,06,11,06,43,17.00
2015,06,11,06,44,17.00
2015,06,11,06,45,17.00
2015,06,11,06,46,17.00
2015,06,11,06,47,17.00
2015,06,11,06,48,17.10
2015,06,11,06,49,17.10
2015,06,11,06,50,17.10
2015,06,11,06,51,17.10
2015,06,11,06,52,17.10
2015,06,11,06,53,17.00
2015,06,11,06,54,17.00
2015,06,11,06,55,17.00
2015,06,11,06,56,17.00
2015,06,11,06,57,17.10
2015,06,11,06,58,17.10
2015,06,11,06,59,17.20
2015,06,11,07,00,17.20
2015,06,11,07,01,17.10
2015,06,11,07,02,17.10
2015,06,11,07,03,17.10
2015,06,11,07,04,17.10
2015,06,11,07,05,17.10
2015,06,11,07,06,17.10
2015,06,11,07,07,17.20
2015,06,11,07,08,17.20
2015,06,11,07,09,17.30
2015,06,11,07,10,17.30
2015,06,11,07,11,17.30
2015,06,11,07,12,17.40
2015,06,11,07,13,17.50
2015,06,11,07,14,17.50
2015,06,11,07,15,17.60
2015,06,11,07,16,17.60
2015,06,11,07,17,17.60
2015,06,11,07,18,17.70
2015,06,11,07,19,17.70
2015,06,11,07,20,17.70
2015,06,11,07,21,17.80
2015,06,11,07,22,17.80
2015,06,11,07,23,17.80
2015,06,11,07,24,17.80
2015,06,11,07,25,17.80
2015,06,11,07,26,17.80
2015,06,11,07,27,17.80
2015,06,11,07,28,17.80
2015,06,11,07,29,17.80
2015,06,11,07,30,17.80
2015,06,11,07,31,17.80
2015,06,11,07,32,17.80
2015,06,11,07,33,17.80
2015,06,11,07,34,17.80
2015,06,11,07,35,17.90
2015,06,11,07,36,17.90
2015,06,11,07,37,18.00
2015,06,11,07,38,18.00
2015,06,11,07,39,18.00
2015,06,11,07,40,18.00
2015,06,11,07,41,18.00
2015,06,11,07,42,17.90
2015,06,11,07,43,17.90
2015,06,11,07,44,18.00
2015,06,11,07,45,18.00
2015,06,11,07,46,18.10
2015,06,11,07,47,18.20
2015,06,11,07,48,18.20
2015,06,11,07,49,18.20
2015,06,11,07,50,18.20
2015,06,11,07,51,18.20
2015,06,11,07,52,18.10
2015,06,11,07,53,18.00
2015,06,11,07,54,17.90
2015,06,11,07,55,17.80
2015,06,11,07,56,17.80
2015,06,11,07,57,17.80
2015,06,11,07,58,17.80
2015,06,11,07,59,17.70
2015,06,11,08,00,17.70
2015,06,11,08,01,17.70
2015,06,11,08,02,17.60
2015,06,11,08,03,17.60
2015,06,11,08,04,17.60
2015,06,11,08,05,17.70
2015,06,11,08,06,17.70
2015,06,11,08,07,17.80
2015,06,11,08,08,17.80
2015,06,11,08,09,17.80
2015,06,11,08,10,17.80
2015,06,11,08,11,17.90
2015,06,11,08,12,17.90
2015,06,11,08,13,17.90
2015,06,11,08,14,17.90
2015,06,11,08,15,17.90
2015,06,11,08,16,17.90
2015,06,11,08,17,18.00
2015,06,11,08,18,18.10
2015,06,11,08,19,18.10
2015,06,11,08,20,18.20
2015,06,11,08,21,18.20
2015,06,11,08,22,18.30
2015,06,11,08,23,18.30
2015,06,11,08,24,18.30
2015,06,11,08,25,18.20
2015,06,11,08,26,18.30
2015,06,11,08,27,18.30
2015,06,11,08,28,18.30
2015,06,11,08,29,18.30
2015,06,11,08,30,18.30
2015,06,11,08,31,18.20
2015,06,11,08,32,18.10
2015,06,11,08,33,18.10
2015,06,11,08,34,18.20
2015,06,11,08,35,18.20
2015,06,11,08,36,18.20
2015,06,11,08,37,18.20
2015,06,11,08,38,18.20
2015,06,11,08,39,18.20
2015,06,11,08,40,18.20
2015,06,11,08,41,18.20
2015,06,11,08,42,18.10
2015,06,11,08,43,18.20
2015,06,11,08,44,18.20
2015,06,11,08,45,18.30
2015,06,11,08,46,18.30
2015,06,11,08,47,18.40
2015,06,11,08,48,18.40
2015,06,11,08,49,18.40
2015,06,11,08,50,18.50
2015,06,11,08,51,18.50
2015,06,11,08,52,18.50
2015,06,11,08,53,18.50
2015,06,11,08,54,18.50
2015,06,11,08,55,18.50
2015,06,11,08,56,18.60
2015,06,11,08,57,18.60
2015,06,11,08,58,18.60
2015,06,11,08,59,18.60
2015,06,11,09,00,18.70
2015,06,11,09,01,18.70
2015,06,11,09,02,18.70
2015,06,11,09,03,18.70
2015,06,11,09,04,18.70
2015,06,11,09,05,18.70
2015,06,11,09,06,18.70
2015,06,11,09,07,18.70
2015,06,11,09,08,18.70
2015,06,11,09,09,18.70
2015,06,11,09,10,18.70
2015,06,11,09,11,18.80
2015,06,11,09,12,18.80
2015,06,11,09,13,18.70
2015,06,11,09,14,18.70
2015,06,11,09,15,18.70
2015,06,11,09,16,18.70
2015,06,11,09,17,18.70
2015,06,11,09,18,18.70
2015,06,11,09,19,18.80
2015,06,11,09,20,18.80
2015,06,11,09,21,18.80
2015,06,11,09,22,18.80
2015,06,11,09,23,18.80
2015,06,11,09,24,18.80
2015,06,11,09,25,18.80
2015,06,11,09,26,18.80
2015,06,11,09,27,18.80
2015,06,11,09,28,18.90
2015,06,11,09,29,18.90
2015,06,11,09,30,18.90
2015,06,11,09,31,18.90
2015,06,11,09,32,18.90
2015,06,11,09,33,18.90
2015,06,11,09,34,18.90
2015,06,11,09,35,19.00
2015,06,11,09,36,19.10
2015,06,11,09,37,19.10
2015,06,11,09,38,19.20
2015,06,11,09,39,19.20
2015,06,11,09,40,19.10
2015,06,11,09,41,19.10
2015,06,11,09,42,19.10
2015,06,11,09,43,19.20
2015,06,11,09,44,19.20
2015,06,11,09,45,19.20
2015,06,11,09,46,19.30
2015,06,11,09,47,19.30
2015,06,11,09,48,19.30
2015,06,11,09,49,19.40
2015,06,11,09,50,19.40
2015,06,11,09,51,19.50
2015,06,11,09,52,19.50
2015,06,11,09,53,19.50
2015,06,11,09,54,19.40
2015,06,11,09,55,19.40
2015,06,11,09,56,19.40
2015,06,11,09,57,19.40
2015,06,11,09,58,19.40
2015,06,11,09,59,19.40
2015,06,11,10,00,19.40
2015,06,11,10,01,19.30
2015,06,11,10,02,19.30
2015,06,11,10,03,19.20
2015,06,11,10,04,19.10
2015,06,11,10,05,19.20
2015,06,11,10,06,19.20
2015,06,11,10,07,19.30
2015,06,11,10,08,19.30
2015,06,11,10,09,19.40
2015,06,11,10,10,19.50
2015,06,11,10,11,19.60
2015,06,11,10,12,19.80
2015,06,11,10,13,19.80
2015,06,11,10,14,19.90
2015,06,11,10,15,19.80
2015,06,11,10,16,19.80
2015,06,11,10,17,19.80
2015,06,11,10,18,19.80
2015,06,11,10,19,19.80
2015,06,11,10,20,19.60
2015,06,11,10,21,19.50
2015,06,11,10,22,19.40
2015,06,11,10,23,19.40
2015,06,11,10,24,19.40
2015,06,11,10,25,19.30
2015,06,11,10,26,19.40
2015,06,11,10,27,19.40
2015,06,11,10,28,19.40
2015,06,11,10,29,19.30
2015,06,11,10,30,19.30
2015,06,11,10,31,19.30
2015,06,11,10,32,19.40
2015,06,11,10,33,19.40
2015,06,11,10,34,19.40
2015,06,11,10,35,19.40
2015,06,11,10,36,19.30
2015,06,11,10,37,19.20
2015,06,11,10,38,19.20
2015,06,11,10,39,19.20
2015,06,11,10,40,19.20
2015,06,11,10,41,19.10
2015,06,11,10,42,19.00
2015,06,11,10,43,18.90
2015,06,11,10,44,18.90
2015,06,11,10,45,18.90
2015,06,11,10,46,18.80
2015,06,11,10,47,18.80
2015,06,11,10,48,18.70
2015,06,11,10,49,18.60
2015,06,11,10,50,18.60
2015,06,11,10,51,18.60
2015,06,11,10,52,18.70
2015,06,11,10,53,18.90
2015,06,11,10,54,19.00
2015,06,11,10,55,19.10
2015,06,11,10,56,19.00
2015,06,11,10,57,18.90
2015,06,11,10,58,18.80
2015,06,11,10,59,18.80
2015,06,11,11,00,18.90
2015,06,11,11,01,18.90
2015,06,11,11,02,19.00
2015,06,11,11,03,19.00
2015,06,11,11,04,19.00
2015,06,11,11,05,19.10
2015,06,11,11,06,19.10
2015,06,11,11,07,19.00
2015,06,11,11,08,19.00
2015,06,11,11,09,18.90
2015,06,11,11,10,18.80
2015,06,11,11,11,18.70
2015,06,11,11,12,18.70
2015,06,11,11,13,18.70
2015,06,11,11,14,18.90
2015,06,11,11,15,19.00
2015,06,11,11,16,19.00
2015,06,11,11,17,19.10
2015,06,11,11,18,19.20
2015,06,11,11,19,19.30
2015,06,11,11,20,19.30
2015,06,11,11,21,19.40
2015,06,11,11,22,19.50
2015,06,11,11,23,19.40
2015,06,11,11,24,19.30
2015,06,11,11,25,19.20
2015,06,11,11,26,19.20
2015,06,11,11,27,19.10
2015,06,11,11,28,19.00
2015,06,11,11,29,18.90
2015,06,11,11,30,18.80
2015,06,11,11,31,18.90
2015,06,11,11,32,18.90
2015,06,11,11,33,19.00
2015,06,11,11,34,19.00
2015,06,11,11,35,18.90
2015,06,11,11,36,18.90
2015,06,11,11,37,18.80
2015,06,11,11,38,18.70
2015,06,11,11,39,18.80
2015,06,11,11,40,18.80
2015,06,11,11,41,18.90
2015,06,11,11,42,18.80
2015,06,11,11,43,18.80
2015,06,11,11,44,18.80
2015,06,11,11,45,18.80
2015,06,11,11,46,18.90
2015,06,11,11,47,18.90
2015,06,11,11,48,19.10
2015,06,11,11,49,19.10
2015,06,11,11,50,19.00
2015,06,11,11,51,18.90
2015,06,11,11,52,18.90
2015,06,11,11,53,18.80
2015,06,11,11,54,18.70
2015,06,11,11,55,18.60
2015,06,11,11,56,18.60
2015,06,11,11,57,18.70
2015,06,11,11,58,18.80
2015,06,11,11,59,18.90
2015,06,11,12,00,19.00
2015,06,11,12,01,19.00
2015,06,11,12,02,19.10
2015,06,11,12,03,19.20
2015,06,11,12,04,19.30
2015,06,11,12,05,19.10
2015,06,11,12,06,18.90
2015,06,11,12,07,18.80
2015,06,11,12,08,18.70
2015,06,11,12,09,18.70
2015,06,11,12,10,18.70
2015,06,11,12,11,18.70
2015,06,11,12,12,18.70
2015,06,11,12,13,18.70
2015,06,11,12,14,18.70
2015,06,11,12,15,18.70
2015,06,11,12,16,18.80
2015,06,11,12,17,18.90
2015,06,11,12,18,19.00
2015,06,11,12,19,19.00
2015,06,11,12,20,19.00
2015,06,11,12,21,19.10
2015,06,11,12,22,19.00
2015,06,11,12,23,19.00
2015,06,11,12,24,19.00
2015,06,11,12,25,19.00
2015,06,11,12,26,19.00
2015,06,11,12,27,19.10
2015,06,11,12,28,19.10
2015,06,11,12,29,19.20
2015,06,11,12,30,19.20
2015,06,11,12,31,19.10
2015,06,11,12,32,19.10
2015,06,11,12,33,19.10
2015,06,11,12,34,19.10
2015,06,11,12,35,19.10
2015,06,11,12,36,19.20
2015,06,11,12,37,19.30
2015,06,11,12,38,19.40
2015,06,11,12,39,19.30
2015,06,11,12,40,19.20
2015,06,11,12,41,19.10
2015,06,11,12,42,19.00
2015,06,11,12,43,19.00
2015,06,11,12,44,19.20
2015,06,11,12,45,19.20
2015,06,11,12,46,19.30
2015,06,11,12,47,19.40
2015,06,11,12,48,19.50
2015,06,11,12,49,19.40
2015,06,11,12,50,19.20
2015,06,11,12,51,18.90
2015,06,11,12,52,18.80
2015,06,11,12,53,18.70
2015,06,11,12,54,18.80
2015,06,11,12,55,18.90
2015,06,11,12,56,18.90
2015,06,11,12,57,19.00
2015,06,11,12,58,19.10
2015,06,11,12,59,19.20
2015,06,11,13,00,19.20
2015,06,11,13,01,19.10
2015,06,11,13,02,19.10
2015,06,11,13,03,19.00
2015,06,11,13,04,19.10
2015,06,11,13,05,19.10
2015,06,11,13,06,19.00
2015,06,11,13,07,18.90
2015,06,11,13,08,18.90
2015,06,11,13,09,18.90
2015,06,11,13,10,18.80
2015,06,11,13,11,18.80
2015,06,11,13,12,18.70
2015,06,11,13,13,18.70
2015,06,11,13,14,18.80
2015,06,11,13,15,18.80
2015,06,11,13,16,18.80
2015,06,11,13,17,18.80
2015,06,11,13,18,18.90
2015,06,11,13,19,18.90
2015,06,11,13,20,19.00
2015,06,11,13,21,19.20
2015,06,11,13,22,19.30
2015,06,11,13,23,19.40
2015,06,11,13,24,19.40
2015,06,11,13,25,19.40
2015,06,11,13,26,19.40
2015,06,11,13,27,19.30
2015,06,11,13,28,19.20
2015,06,11,13,29,19.20
2015,06,11,13,30,19.30
2015,06,11,13,31,19.30
2015,06,11,13,32,19.30
2015,06,11,13,33,19.30
2015,06,11,13,34,19.20
2015,06,11,13,35,19.10
2015,06,11,13,36,19.10
2015,06,11,13,37,19.00
2015,06,11,13,38,19.10
2015,06,11,13,39,19.10
2015,06,11,13,40,19.10
2015,06,11,13,41,19.10
2015,06,11,13,42,19.00
2015,06,11,13,43,18.90
2015,06,11,13,44,18.80
2015,06,11,13,45,18.80
2015,06,11,13,46,18.80
2015,06,11,13,47,18.80
2015,06,11,13,48,18.70
2015,06,11,13,49,18.70
2015,06,11,13,50,18.60
2015,06,11,13,51,18.60
2015,06,11,13,52,18.70
2015,06,11,13,53,18.80
2015,06,11,13,54,18.90
2015,06,11,13,55,18.90
2015,06,11,13,56,19.00
2015,06,11,13,57,19.10
2015,06,11,13,58,19.20
2015,06,11,13,59,19.20
2015,06,11,14,00,19.10
2015,06,11,14,01,19.00
2015,06,11,14,02,18.90
2015,06,11,14,03,18.90
2015,06,11,14,04,19.00
2015,06,11,14,05,18.90
2015,06,11,14,06,18.90
2015,06,11,14,07,18.90
2015,06,11,14,08,19.00
2015,06,11,14,09,19.10
2015,06,11,14,10,19.20
2015,06,11,14,11,19.30
2015,06,11,14,12,19.30
2015,06,11,14,13,19.20
2015,06,11,14,14,19.20
2015,06,11,14,15,19.20
2015,06,11,14,16,19.30
2015,06,11,14,17,19.40
2015,06,11,14,18,19.40
2015,06,11,14,19,19.40
2015,06,11,14,20,19.30
2015,06,11,14,21,19.20
2015,06,11,14,22,19.20
2015,06,11,14,23,19.20
2015,06,11,14,24,19.30
2015,06,11,14,25,19.20
2015,06,11,14,26,19.20
2015,06,11,14,27,19.20
2015,06,11,14,28,19.10
2015,06,11,14,29,19.10
2015,06,11,14,30,19.20
2015,06,11,14,31,19.30
2015,06,11,14,32,19.40
2015,06,11,14,33,19.30
2015,06,11,14,34,19.30
2015,06,11,14,35,19.40
2015,06,11,14,36,19.60
2015,06,11,14,37,19.70
2015,06,11,14,38,19.90
2015,06,11,14,39,19.90
2015,06,11,14,40,20.00
2015,06,11,14,41,20.00
2015,06,11,14,42,20.00
2015,06,11,14,43,20.10
2015,06,11,14,44,20.00
2015,06,11,14,45,19.90
2015,06,11,14,46,19.90
2015,06,11,14,47,19.90
2015,06,11,14,48,19.90
2015,06,11,14,49,19.80
2015,06,11,14,50,19.70
2015,06,11,14,51,19.60
2015,06,11,14,52,19.60
2015,06,11,14,53,19.60
2015,06,11,14,54,19.70
2015,06,11,14,55,19.60
2015,06,11,14,56,19.60
2015,06,11,14,57,19.60
2015,06,11,14,58,19.70
2015,06,11,14,59,19.70
2015,06,11,15,00,19.80
2015,06,11,15,01,19.80
2015,06,11,15,02,19.80
2015,06,11,15,03,19.70
2015,06,11,15,04,19.70
2015,06,11,15,05,19.60
2015,06,11,15,06,19.50
2015,06,11,15,07,19.50
2015,06,11,15,08,19.60
2015,06,11,15,09,19.60
2015,06,11,15,10,19.70
2015,06,11,15,11,19.80
2015,06,11,15,12,20.00
2015,06,11,15,13,20.10
2015,06,11,15,14,20.30
2015,06,11,15,15,20.30
2015,06,11,15,16,20.40
2015,06,11,15,17,20.40
2015,06,11,15,18,20.40
2015,06,11,15,19,20.40
2015,06,11,15,20,20.30
2015,06,11,15,21,20.20
2015,06,11,15,22,20.10
2015,06,11,15,23,20.00
2015,06,11,15,24,20.00
2015,06,11,15,25,20.00
2015,06,11,15,26,20.10
2015,06,11,15,27,20.10
2015,06,11,15,28,20.20
2015,06,11,15,29,20.20
2015,06,11,15,30,20.30
2015,06,11,15,31,20.30
2015,06,11,15,32,20.30
2015,06,11,15,33,20.30
2015,06,11,15,34,20.30
2015,06,11,15,35,20.30
2015,06,11,15,36,20.30
2015,06,11,15,37,20.30
2015,06,11,15,38,20.30
2015,06,11,15,39,20.30
2015,06,11,15,40,20.20
2015,06,11,15,41,20.20
2015,06,11,15,42,20.20
2015,06,11,15,43,20.20
2015,06,11,15,44,20.20
2015,06,11,15,45,20.20
2015,06,11,15,46,20.20
2015,06,11,15,47,20.10
2015,06,11,15,48,20.10
2015,06,11,15,49,20.10
2015,06,11,15,50,20.10
2015,06,11,15,51,20.30
2015,06,11,15,52,20.40
2015,06,11,15,53,20.60
2015,06,11,15,54,20.80
2015,06,11,15,55,20.90
2015,06,11,15,56,20.90
2015,06,11,15,57,21.00
2015,06,11,15,58,21.00
2015,06,11,15,59,20.90
2015,06,11,16,00,20.90
2015,06,11,16,01,20.80
2015,06,11,16,02,20.80
2015,06,11,16,03,20.80
2015,06,11,16,04,20.80
2015,06,11,16,05,20.70
2015,06,11,16,06,20.70
2015,06,11,16,07,20.80
2015,06,11,16,08,20.80
2015,06,11,16,09,20.80
2015,06,11,16,10,20.90
2015,06,11,16,11,20.90
2015,06,11,16,12,20.80
2015,06,11,16,13,20.80
2015,06,11,16,14,20.80
2015,06,11,16,15,20.80
2015,06,11,16,16,20.90
2015,06,11,16,17,20.80
2015,06,11,16,18,20.70
2015,06,11,16,19,20.60
2015,06,11,16,20,20.60
2015,06,11,16,21,20.50
2015,06,11,16,22,20.30
2015,06,11,16,23,20.20
2015,06,11,16,24,20.20
2015,06,11,16,25,20.10
2015,06,11,16,26,20.10
2015,06,11,16,27,20.10
2015,06,11,16,28,20.20
2015,06,11,16,29,20.30
2015,06,11,16,30,20.30
2015,06,11,16,31,20.40
2015,06,11,16,32,20.50
2015,06,11,16,33,20.40
2015,06,11,16,34,20.40
2015,06,11,16,35,20.30
2015,06,11,16,36,20.20
2015,06,11,16,37,20.10
2015,06,11,16,38,20.10
2015,06,11,16,39,20.00
2015,06,11,16,40,20.10
2015,06,11,16,41,20.10
2015,06,11,16,42,20.20
2015,06,11,16,43,20.20
2015,06,11,16,44,20.20
2015,06,11,16,45,20.20
2015,06,11,16,46,20.20
2015,06,11,16,47,20.20
2015,06,11,16,48,20.20
2015,06,11,16,49,20.20
2015,06,11,16,50,20.20
2015,06,11,16,51,20.20
2015,06,11,16,52,20.10
2015,06,11,16,53,20.10
2015,06,11,16,54,20.00
2015,06,11,16,55,19.90
2015,06,11,16,56,20.00
2015,06,11,16,57,20.00
2015,06,11,16,58,20.10
2015,06,11,16,59,20.00
2015,06,11,17,00,20.00
2015,06,11,17,01,19.90
2015,06,11,17,02,19.90
2015,06,11,17,03,19.90
2015,06,11,17,04,19.90
2015,06,11,17,05,20.00
2015,06,11,17,06,20.00
2015,06,11,17,07,20.00
2015,06,11,17,08,20.00
2015,06,11,17,09,20.00
2015,06,11,17,10,20.00
2015,06,11,17,11,20.00
2015,06,11,17,12,20.00
2015,06,11,17,13,20.00
2015,06,11,17,14,20.00
2015,06,11,17,15,20.10
2015,06,11,17,16,20.00
2015,06,11,17,17,19.90
2015,06,11,17,18,19.90
2015,06,11,17,19,19.90